Hot Springs, AR

12:49 AM CDT on April 27, 2018 (GMT -0500)
Hot Springs Memorial

Weather History for KHOT - November, 2011

Change the Weather History Date:

Saturday, November 5, 2011

  Actual Average Record
Temperature  
Mean Temperature 57 °F -  
Max Temperature 64 °F 65 °F 84 °F (1987)
Min Temperature 50 °F 41 °F 23 °F (1991)
Degree Days  
Heating Degree Days 8    
Growing Degree Days 7 (Base 50)    
Moisture  
Dew Point 45 °F    
Average Humidity 69    
Maximum Humidity 82    
Minimum Humidity 52    
Precipitation  
Precipitation 0.00 in - - ()
Sea Level Pressure  
Sea Level Pressure 30.11 in    
Wind  
Wind Speed 6 mph (SE)    
Max Wind Speed 9 mph    
Max Gust Speed -    
Visibility 10 miles    
Events      
Averages and records for this station are not official NWS values.
T = Trace of Precipitation, MM = Missing Value Source: NWS Daily Summary

Daily Weather History Graph

Daily Weather History Graph

Search for Another Location

Airport or City:

Astronomy

Nov. 05, 2011 Rise Set
Actual Time 7:36 AM CDT 6:15 PM CDT
Civil Twilight 7:09 AM CDT 6:41 PM CDT
Nautical Twilight 6:39 AM CDT 7:11 PM CDT
Astronomical Twilight 6:10 AM CDT 7:40 PM CDT
Moon 3:24 PM CDT (11/5) 2:57 AM CDT (11/5)
Length of Visible Light 11h 31m
Length of Day
10h 39m
Waxing Gibbous, 78% of the Moon is Illuminated
Nov 5
Waxing Gibbous
Nov 10
Full
Nov 18
Last Quarter
Nov 25
New
Dec 2
First Quarter

Hourly Weather History & Observations

Time (CDT) Temp. Dew Point Humidity Pressure Visibility Wind Dir Wind Speed Gust Speed Precip Events Conditions
12:53 AM 51.1 °F 43.0 °F 74% 30.19 in 10.0 mi ESE 9.2 mph - N/A   Overcast
1:53 AM 51.1 °F 43.0 °F 74% 30.18 in 10.0 mi SE 6.9 mph - N/A   Overcast
2:53 AM 51.1 °F 43.0 °F 74% 30.17 in 10.0 mi East 6.9 mph - N/A   Overcast
3:53 AM 51.1 °F 43.0 °F 74% 30.15 in 10.0 mi ESE 4.6 mph - N/A   Overcast
4:53 AM 51.1 °F 44.1 °F 77% 30.15 in 10.0 mi ESE 5.8 mph - N/A   Overcast
5:53 AM 51.1 °F 44.1 °F 77% 30.16 in 10.0 mi ESE 5.8 mph - N/A   Overcast
6:53 AM 50.0 °F 44.6 °F 82% 30.17 in 10.0 mi SE 3.5 mph - N/A   Overcast
7:53 AM 50.0 °F 44.6 °F 82% 30.17 in 10.0 mi SE 4.6 mph - N/A   Overcast
8:53 AM 51.1 °F 44.1 °F 77% 30.18 in 10.0 mi East 5.8 mph - N/A   Overcast
9:53 AM 51.8 °F 44.6 °F 76% 30.19 in 10.0 mi SE 4.6 mph - N/A   Overcast
10:53 AM 53.1 °F 46.0 °F 77% 30.18 in 10.0 mi SSE 6.9 mph - N/A   Overcast
11:53 AM 54.0 °F 46.0 °F 75% 30.17 in 10.0 mi South 5.8 mph - N/A   Overcast
12:53 PM 57.0 °F 46.0 °F 67% 30.13 in 10.0 mi Variable 4.6 mph - N/A   Overcast
1:51 PM 57.2 °F 46.4 °F 67% 30.10 in 10.0 mi Variable 3.5 mph - N/A   Scattered Clouds
1:53 PM 57.9 °F 46.0 °F 65% 30.09 in 10.0 mi Variable 3.5 mph - N/A   Scattered Clouds
2:53 PM 62.6 °F 46.4 °F 55% 30.05 in 10.0 mi South 6.9 mph - N/A   Clear
3:53 PM 64.0 °F 46.0 °F 52% 30.03 in 10.0 mi South 6.9 mph - N/A   Clear
4:53 PM 64.0 °F 46.0 °F 52% 30.01 in 10.0 mi SE 9.2 mph - N/A   Clear
5:53 PM 63.0 °F 46.0 °F 54% 30.00 in 10.0 mi SE 9.2 mph - N/A   Clear
6:53 PM 59.0 °F 46.0 °F 62% 30.00 in 10.0 mi ESE 6.9 mph - N/A   Clear
7:53 PM 57.0 °F 46.0 °F 67% 30.01 in 10.0 mi East 6.9 mph - N/A   Clear
8:53 PM 57.9 °F 46.0 °F 65% 30.01 in 10.0 mi ESE 6.9 mph - N/A   Clear
9:53 PM 57.9 °F 46.0 °F 65% 30.04 in 10.0 mi SE 6.9 mph - N/A   Clear
10:53 PM 53.6 °F 44.6 °F 72% 30.06 in 10.0 mi East 4.6 mph - N/A   Clear
11:53 PM 57.0 °F 46.0 °F 67% 30.06 in 10.0 mi SE 5.8 mph - N/A   Clear